CAPE
3032 2962 2736 2616 2623 2246 1729 1538 1417 1279 924 652 386 140 8 0 0 0 0 0 0 0 0 0 0 0 0 0 0 0 0 0 0 0 0 0 0 0 0 0 0 0 5
2727 2662 2590 2550 2510 2325 2124 2007 1563 1210 761 447 181 9 0 0 0 0 0 0 0 0 0 0 0 0 0 0 0 0 0 0 0 0 0 0 0 0 0 0 0 0 18
2560 2659 2570 2571 2497 2285 1952 1766 1182 818 449 162 36 0 0 0 0 0 0 0 0 0 0 0 0 0 0 0 0 0 0 0 0 0 2 0 0 0 0 0 0 0 5
2545 2507 2472 2439 2398 2268 1870 1376 876 504 233 41 0 0 0 0 0 0 0 0 0 0 0 0 0 0 0 0 0 0 0 0 0 0 0 2 0 0 0 0 0 0 1
2705 2482 2676 2555 2480 1948 1499 1029 633 267 46 1 0 0 0 0 0 0 0 0 0 0 0 0 0 0 0 0 0 0 0 0 0 0 1 0 0 0 0 0 0 0 0
2872 2680 2920 2642 2083 1542 1065 682 308 34 0 0 0 0 0 0 0 0 0 0 0 0 0 0 0 0 0 0 0 0 0 0 0 0 0 0 0 0 0 0 0 0 0
3108 2894 3001 2330 1761 1236 857 392 53 0 0 0 0 0 0 0 0 0 0 0 0 0 0 0 0 0 0 0 0 0 0 0 0 0 0 0 0 0 0 0 0 0 0
3254 3132 2461 1907 1354 914 511 143 6 0 0 0 0 0 0 0 0 0 0 0 0 0 0 0 0 0 0 0 0 1 0 0 0 0 0 0 0 0 0 0 0 0 0
3313 2601 1985 1550 1048 626 233 34 0 0 0 0 0 0 0 0 0 0 0 0 0 0 0 0 0 0 0 0 0 0 0 5 0 0 0 0 0 0 0 0 0 0 0
2956 2247 1648 1152 781 378 148 1 0 0 0 0 0 0 0 0 0 0 0 0 0 0 0 0 0 0 0 0 0 0 0 2 6 0 0 0 0 0 0 0 0 0 0
2436 1615 1144 917 535 263 20 0 0 0 0 0 0 0 0 0 0 0 0 0 2 8 0 0 0 0 0 0 0 0 0 0 0 0 0 0 16 23 13 0 0 0 0
1648 1296 1084 775 454 105 0 0 0 0 0 0 0 0 0 0 0 0 0 0 0 0 0 15 11 0 0 0 0 0 0 0 0 0 0 0 8 24 50 3 34 9 0
1314 1221 967 563 154 62 0 0 0 0 0 0 0 0 0 0 0 0 0 0 0 0 0 0 0 0 0 0 0 0 0 0 0 0 0 20 23 41 51 63 80 37 27
1306 1032 571 321 71 0 0 0 0 0 0 0 0 0 0 0 0 0 0 0 0 0 0 0 0 0 0 0 0 0 0 0 0 0 18 47 41 57 39 32 23 36 26
1153 692 283 59 2 0 0 0 0 0 0 0 0 0 0 0 0 0 0 0 0 0 0 0 0 0 0 0 1 7 4 1 12 15 22 52 48 25 27 33 22 24 65
821 322 174 14 3 0 0 0 0 0 0 0 0 0 0 0 0 0 0 0 0 0 0 0 10 26 19 16 38 38 51 26 90 73 36 59 55 24 29 12 30 50 25
534 279 143 17 0 0 0 0 0 0 0 0 0 0 0 0 0 0 0 0 0 0 0 11 30 7 50 70 75 46 58 106 64 40 54 68 70 46 48 34 23 36 22
380 242 170 55 18 0 1 0 0 0 0 0 0 0 0 0 0 0 0 0 0 0 0 0 0 0 24 28 51 41 36 10 7 91 38 72 77 58 61 61 27 28 44
467 333 245 129 31 21 7 0 0 0 0 0 0 0 0 0 0 0 0 0 0 0 0 0 0 0 8 23 7 45 29 26 44 98 67 69 68 92 62 33 30 39 0
545 506 343 170 170 90 19 0 0 0 0 0 0 0 0 0 0 0 0 0 0 0 0 1 26 66 28 21 12 64 24 114 107 61 57 37 44 39 22 21 23 11 1
618 766 319 495 162 58 0 0 0 0 0 0 0 0 0 0 0 0 0 0 0 0 0 0 44 87 151 103 139 96 36 0 32 25 96 49 40 2 1 2 4 0 0
665 772 417 270 79 1 0 0 0 0 0 0 0 0 0 0 0 0 0 0 1 2 26 39 22 25 82 65 38 26 26 24 43 30 1 0 0 0 0 2 2 1 4
763 503 267 68 0 0 0 0 0 0 0 0 0 0 0 0 0 7 10 45 51 62 40 20 41 113 61 23 7 3 0 0 0 0 0 0 0 0 0 10 8 12 18
413 129 0 0 0 0 0 0 0 0 0 0 0 6 0 9 0 14 18 14 9 18 3 2 0 0 1 0 0 0 0 0 0 0 0 0 0 0 0 0 1 0 1
0 0 0 0 0 0 0 0 0 0 0 0 0 24 7 23 14 0 39 32 6 0 0 0 0 0 0 0 0 0 0 0 0 0 0 0 0 0 0 0 0 0 0
0 0 0 0 0 0 0 0 0 0 0 1 14 18 21 16 21 25 24 8 10 4 0 0 0 0 0 0 0 0 0 0 0 0 0 0 0 0 0 0 0 0 2
CIN
-52 -57 -55 -37 -11 -3 -12 -19 -11 -15 -56 -44 -64 -166 -152 -0 -0 -0 -0 -0 -0 -0 -0 -0 -0 -0 -0 -0 -0 -0 -0 -0 -0 -0 -0 -0 -0 -0 -0 -0 -0 -0 -32
-89 -88 -70 -44 -11 -2 -6 -10 -14 -37 -41 -78 -177 -151 -0 -0 -0 -0 -0 -0 -0 -0 -0 -0 -0 -0 -0 -0 -0 -0 -0 -0 -0 -0 -0 -0 -0 -0 -0 -0 -0 -0 -17
-99 -84 -63 -41 -13 -8 -23 -29 -76 -95 -143 -237 -313 -0 -0 -0 -0 -0 -0 -0 -0 -0 -0 -0 -0 -0 -0 -0 -0 -0 -0 -0 -0 -0 -2 -0 -0 -0 -0 -0 -0 -0 -10
-86 -77 -60 -51 -34 -47 -71 -105 -170 -215 -276 -383 -0 -0 -0 -0 -0 -0 -0 -0 -0 -0 -0 -0 -0 -0 -0 -0 -0 -0 -0 -0 -0 -0 -0 -3 -0 -0 -0 -0 -0 -0 -2
-53 -64 -50 -52 -64 -121 -147 -203 -260 -324 -423 -147 -0 -0 -0 -0 -0 -0 -0 -0 -0 -0 -0 -0 -0 -0 -0 -0 -0 -0 -0 -0 -0 -0 -1 -0 -0 -0 -0 -0 -0 -0 -0
-23 -57 -49 -95 -149 -206 -240 -272 -343 -476 -0 -0 -0 -0 -0 -0 -0 -0 -0 -0 -0 -0 -0 -0 -0 -0 -0 -0 -0 -0 -0 -0 -0 -0 -0 -0 -0 -0 -0 -0 -0 -0 -0
-17 -47 -56 -166 -201 -244 -286 -371 -492 -0 -0 -0 -0 -0 -0 -0 -0 -0 -0 -0 -0 -0 -0 -0 -0 -0 -0 -0 -0 -0 -0 -0 -0 -0 -0 -0 -0 -0 -0 -0 -0 -0 -0
-31 -52 -132 -206 -276 -336 -386 -527 -603 -0 -0 -0 -0 -0 -0 -0 -0 -0 -0 -0 -0 -0 -0 -0 -0 -0 -0 -0 -0 -6 -0 -0 -0 -0 -0 -0 -0 -0 -0 -0 -0 -0 -0
-29 -128 -219 -284 -367 -398 -508 -636 -0 -0 -0 -0 -0 -0 -0 -0 -0 -0 -0 -0 -0 -0 -0 -0 -0 -0 -0 -0 -0 -0 -0 -1 -1 -0 -0 -0 -0 -0 -0 -0 -0 -0 -0
-49 -154 -254 -335 -411 -423 -514 -44 -0 -0 -0 -0 -0 -0 -0 -0 -0 -0 -0 -0 -0 -0 -0 -0 -0 -0 -0 -0 -0 -0 -0 -7 -13 -0 -0 -0 -0 -0 -0 -0 -0 -0 -0
-96 -236 -287 -296 -297 -367 -578 -0 -0 -0 -0 -0 -0 -0 -0 -0 -0 -0 -0 -0 -5 -10 -0 -0 -0 -0 -0 -0 -0 -0 -0 -0 -0 -0 -0 -0 -27 -62 -64 -0 -17 -0 -0
-262 -249 -220 -265 -382 -570 -0 -0 -0 -0 -0 -0 -0 -0 -0 -0 -0 -0 -0 -0 -0 -0 -0 -11 -28 -0 -0 -0 -0 -0 -0 -0 -0 -0 -0 -3 -14 -31 -46 -55 -26 -45 -0
-231 -199 -207 -321 -455 -586 -0 -0 -0 -0 -0 -0 -0 -0 -0 -0 -0 -0 -0 -0 -0 -0 -0 -0 -0 -0 -0 -0 -0 -0 -0 -0 -0 -0 -0 -13 -15 -20 -32 -30 -11 -34 -31
-150 -176 -318 -390 -611 -0 -0 -0 -0 -0 -0 -0 -0 -0 -0 -0 -0 -0 -0 -0 -0 -0 -0 -0 -0 -0 -0 -0 -0 -0 -0 -0 -0 -0 -27 -16 -11 -12 -11 -18 -18 -15 -21
-150 -269 -400 -608 -0 -0 -0 -0 -0 -0 -0 -0 -0 -0 -0 -0 -0 -0 -0 -0 -0 -0 -0 -0 -0 -0 -26 -0 -22 -16 -21 -16 -47 -49 -38 -16 -6 -20 -32 -25 -27 -12 -7
-249 -409 -449 -686 -0 -0 -0 -0 -0 -0 -0 -0 -0 -0 -0 -0 -0 -0 -0 -0 -0 -0 -0 -0 -18 -21 -20 -31 -22 -35 -28 -28 -21 -31 -41 -17 -11 -28 -27 -24 -21 -18 -13
-307 -386 -415 -536 -0 -0 -0 -0 -0 -0 -0 -0 -0 -0 -0 -0 -0 -0 -0 -0 -0 -0 -0 -18 -7 -7 -7 -13 -23 -34 -11 -3 -19 -17 -7 -12 -20 -19 -21 -27 -19 -17 -23
-290 -326 -326 -376 -266 -70 -199 -0 -0 -0 -0 -0 -0 -0 -0 -0 -0 -0 -0 -0 -0 -0 -0 -0 -0 -0 -17 -23 -19 -29 -29 -19 -20 -7 -13 -12 -25 -18 -22 -12 -25 -18 -14
-206 -229 -202 -188 -229 -191 -219 -0 -0 -0 -0 -0 -0 -0 -0 -0 -0 -0 -0 -0 -0 -0 -0 -0 -0 -0 -33 -38 -16 -28 -24 -30 -31 -9 -17 -22 -17 -7 -12 -14 -18 -10 -0
-169 -138 -129 -156 -106 -131 -143 -0 -0 -0 -0 -0 -0 -0 -0 -0 -0 -0 -0 -0 -0 -0 -0 -11 -23 -17 -32 -20 -32 -25 -33 -10 -13 -7 -12 -13 -11 -15 -11 -2 -8 -8 -3
-103 -46 -116 -37 -113 -126 -0 -0 -0 -0 -0 -0 -0 -0 -0 -0 -0 -0 -0 -0 -0 -0 -0 -2 -25 -21 -9 -17 -15 -16 -35 -0 -20 -24 -4 -14 -7 -10 -3 -10 -10 -0 -0
-82 -36 -69 -93 -160 -126 -0 -0 -0 -0 -0 -0 -0 -0 -0 -0 -0 -0 -0 -0 -37 -19 -47 -36 -27 -41 -11 -24 -27 -22 -12 -26 -19 -6 -4 -0 -0 -0 -0 -2 -4 -1 -5
-46 -89 -131 -231 -0 -0 -0 -0 -0 -0 -0 -0 -0 -0 -0 -0 -0 -9 -11 -18 -41 -41 -48 -29 -39 -9 -16 -14 -9 -3 -0 -0 -0 -0 -0 -0 -0 -0 -0 -2 -2 -3 -2
-95 -207 -20 -0 -0 -0 -0 -0 -0 -0 -0 -0 -0 -13 -0 -21 -11 -14 -12 -22 -17 -16 -37 -23 -3 -0 -1 -0 -0 -0 -0 -0 -0 -0 -0 -0 -0 -0 -0 -0 -5 -4 -4
-0 -0 -0 -0 -0 -0 -0 -0 -0 -0 -0 -0 -4 -13 -21 -39 -24 -22 -7 -9 -6 -0 -0 -0 -0 -0 -0 -0 -0 -0 -0 -0 -0 -0 -0 -0 -0 -0 -0 -0 -0 -0 -0
-0 -0 -0 -0 -0 -0 -0 -0 -0 -0 -0 -14 -15 -5 -19 -16 -6 -19 -18 -14 -19 -18 -0 -0 -0 -0 -0 -0 -0 -0 -0 -0 -0 -0 -0 -0 -0 -0 -0 -0 -0 -1 -3
Wind_Speed
17 16 16 15 15 13 11 10 8 8 8 9 9 9 10 10 11 15 14 14 15 15 15 16 16 17 18 18 19 20 20 18 16 19 17 19 21 21 21 21 20 15 12
17 15 15 14 14 13 10 9 9 7 8 8 8 9 10 11 12 12 11 13 13 14 15 16 18 17 19 18 18 18 18 17 16 19 19 19 19 21 20 20 22 20 11
16 14 14 13 11 9 6 6 8 7 7 7 8 8 9 10 11 11 12 12 13 13 14 15 16 16 19 19 19 21 18 19 18 20 17 18 18 21 23 22 25 23 14
16 14 13 11 10 7 8 7 8 9 8 6 7 8 9 9 10 11 11 11 12 13 14 16 18 19 19 19 19 21 20 20 17 17 18 19 19 24 24 25 26 24 22
15 13 11 10 9 7 7 7 8 9 8 8 7 6 8 8 8 9 9 10 11 12 14 15 16 17 17 18 19 21 20 22 22 22 21 22 24 24 25 25 26 25 21
13 13 12 9 8 7 6 7 7 7 6 6 6 7 6 6 7 8 9 9 10 11 13 14 15 15 16 18 19 20 19 20 20 21 22 22 24 24 25 26 25 24 23
13 14 13 10 7 7 7 8 6 6 6 6 6 5 5 7 6 7 8 9 9 10 11 11 11 13 14 15 16 17 18 18 17 18 19 21 21 22 23 23 24 24 24
15 13 12 9 8 8 9 8 5 5 4 4 4 4 5 5 4 5 6 8 9 10 11 11 14 13 15 15 15 12 11 12 14 14 17 18 17 18 21 20 22 22 24
15 14 14 12 10 10 9 7 5 4 3 3 4 3 3 3 1 2 4 7 8 9 10 11 13 13 13 15 15 18 16 17 10 14 15 16 17 17 19 22 23 25 27
13 13 12 11 11 10 7 4 2 2 3 3 4 3 6 5 1 2 2 7 6 7 7 9 10 12 10 11 13 16 19 19 21 14 15 15 13 13 13 14 21 23 24
12 12 11 10 9 8 6 4 1 1 1 2 3 2 4 6 2 2 2 4 13 7 5 5 7 6 9 10 11 13 15 20 22 21 19 18 17 14 11 8 14 19 23
12 11 12 11 11 10 8 5 3 2 1 2 2 3 2 3 3 2 3 3 10 15 11 8 5 4 8 9 10 11 13 15 18 19 17 19 22 15 9 9 11 19 20
12 14 13 11 10 9 8 6 4 3 2 2 1 0 1 3 3 3 3 5 7 11 13 15 7 7 8 9 10 11 12 16 17 17 16 19 21 18 10 13 14 15 18
13 13 12 12 11 10 9 7 5 4 3 3 4 2 2 0 1 3 4 5 8 11 11 12 8 7 8 11 13 13 12 12 13 13 15 17 20 15 18 18 19 19 18
14 13 12 12 12 11 10 9 8 6 5 6 5 4 3 3 2 1 2 2 2 5 7 9 8 8 10 11 13 14 13 13 12 13 13 15 17 20 21 19 22 23 22
14 13 13 13 12 11 10 10 12 9 9 6 6 5 7 8 4 7 5 0 1 3 3 6 8 8 9 10 12 15 15 14 15 14 15 11 16 21 21 19 20 23 26
14 14 13 12 12 12 13 12 13 14 9 7 8 9 7 6 5 1 1 2 4 5 6 5 8 12 13 16 12 11 15 15 17 23 14 17 18 19 21 21 23 25 25
12 11 13 13 13 16 16 12 8 10 11 9 8 7 5 5 5 3 2 4 9 7 7 8 10 11 14 16 15 16 14 18 20 21 19 19 19 19 21 19 20 19 20
11 11 11 12 10 7 7 8 8 8 8 9 9 8 5 8 8 8 7 9 7 6 6 8 9 11 13 16 16 17 16 18 16 16 18 18 19 18 16 15 13 16 18
13 13 12 12 11 9 9 9 9 8 8 8 8 7 7 9 13 11 9 7 6 6 9 13 15 15 10 13 13 16 14 20 19 20 20 19 17 16 15 18 18 19 21
15 14 13 15 15 12 11 9 9 9 8 6 6 3 4 8 9 6 5 4 5 7 11 15 17 22 14 14 14 17 19 23 23 18 14 15 14 18 21 19 17 18 19
13 16 13 15 13 12 13 12 11 9 7 5 5 4 5 4 2 3 2 4 8 8 8 11 13 13 17 19 19 20 17 14 14 16 17 20 20 20 17 15 15 15 14
11 12 13 16 12 12 12 12 11 14 11 13 12 9 7 5 1 3 4 8 6 5 6 8 9 9 15 15 16 17 18 19 19 19 20 20 21 21 18 13 10 10 12
12 11 12 11 8 7 9 14 12 12 13 10 5 12 4 3 2 5 6 11 7 9 13 16 19 20 17 18 19 20 19 17 16 18 20 20 20 22 23 22 17 16 16
10 10 9 8 8 7 6 4 8 6 7 3 5 4 3 2 6 6 7 7 8 13 16 18 19 18 17 15 14 14 14 15 16 17 20 23 22 20 19 20 21 22 22
12 10 9 8 7 5 8 4 1 4 7 12 10 8 3 4 2 6 9 11 12 14 14 15 17 19 17 16 13 11 9 11 15 18 20 20 19 19 18 17 17 17 18
Wind_Direction
157 153 152 151 151 141 124 116 80 64 61 57 56 56 51 46 36 12 19 21 15 14 23 20 15 8 2 6 0 352 355 352 354 2 9 6 5 5 4 360 348 360 5
162 158 156 149 146 145 127 109 102 63 32 38 41 38 36 32 27 24 30 25 26 26 23 20 9 12 3 3 5 5 3 4 359 351 351 357 3 5 0 359 351 354 16
166 162 158 153 147 134 114 85 85 76 42 54 49 38 32 27 28 28 19 24 26 29 26 21 21 19 7 5 1 358 4 360 354 350 359 2 5 1 351 348 337 342 358
171 168 165 159 152 129 119 107 100 108 101 66 53 39 41 37 31 24 23 26 31 29 22 17 10 8 8 3 1 353 353 348 358 0 357 356 356 350 347 338 336 333 339
179 176 172 163 153 139 123 120 112 107 101 95 74 48 40 42 56 38 40 37 33 29 20 19 14 14 11 8 3 352 352 347 349 350 354 350 348 345 344 335 334 332 339
192 185 175 172 163 152 132 124 113 107 92 79 67 80 63 61 78 51 41 37 32 27 18 19 25 24 19 10 6 4 2 355 354 352 352 349 345 345 337 333 331 331 331
194 184 176 179 176 162 146 137 124 118 105 91 68 51 65 52 74 51 28 35 32 32 33 38 27 21 21 14 12 9 8 12 12 3 4 355 350 353 350 338 333 331 328
192 192 184 183 181 172 157 150 143 132 119 97 64 67 49 50 71 52 28 33 30 27 28 23 16 15 6 2 1 9 14 12 5 7 2 1 2 360 355 350 343 334 332
203 193 189 189 194 183 182 176 161 143 109 76 65 47 10 33 74 33 26 19 19 24 19 12 6 4 5 1 355 352 358 356 7 356 358 359 354 354 354 352 348 337 331
220 213 205 207 207 206 200 197 180 129 98 77 90 92 334 338 11 315 354 356 16 16 22 19 9 7 15 11 359 350 349 352 346 356 349 350 349 345 348 358 350 347 338
227 218 224 229 232 225 215 198 214 162 71 38 74 80 328 324 310 256 286 334 341 348 2 15 20 29 16 8 358 354 352 344 339 337 338 339 337 333 340 352 352 348 339
225 223 237 232 215 208 207 212 205 207 167 8 69 96 112 337 322 225 266 277 332 338 349 343 1 43 18 10 1 357 351 349 348 345 341 340 344 357 352 346 346 341 340
237 240 236 228 228 224 237 247 208 212 238 335 345 88 109 339 316 263 282 299 314 328 357 355 11 16 14 4 356 351 350 346 344 345 344 343 341 341 348 340 337 339 337
245 242 238 223 230 232 244 245 230 254 260 294 297 271 298 5 326 284 296 302 306 313 324 340 351 348 347 344 346 346 342 340 340 336 335 335 343 347 337 335 332 331 328
251 242 235 239 238 243 251 243 265 264 269 277 282 271 276 249 229 237 244 296 303 308 323 329 333 332 329 331 336 334 336 334 328 326 320 323 330 337 334 329 328 325 325
254 245 238 242 245 247 250 259 289 282 271 278 299 282 307 306 243 194 180 169 6 347 325 326 327 324 325 320 326 335 333 333 333 335 326 323 326 331 331 326 325 321 319
253 254 248 247 246 253 259 267 273 295 296 283 302 314 322 340 348 120 157 12 12 360 337 327 331 334 336 337 332 330 329 331 336 330 328 329 332 331 329 328 324 319 316
260 247 250 249 256 262 267 271 263 268 272 279 293 306 325 329 336 359 354 337 326 322 320 322 324 325 326 331 329 330 328 331 333 334 333 331 332 327 328 326 329 321 317
264 261 261 255 261 243 228 256 260 270 275 278 279 280 285 302 315 322 322 313 318 316 318 319 312 314 324 329 328 331 329 329 324 329 335 332 331 328 329 326 326 327 328
263 262 261 263 267 253 253 258 268 271 276 287 286 272 260 287 294 302 307 305 304 308 316 320 327 327 323 324 323 324 324 338 337 336 329 330 329 332 332 336 337 329 325
265 266 258 274 273 267 271 266 261 269 278 284 279 218 268 280 277 289 289 259 271 292 313 319 319 326 334 340 336 333 330 328 332 333 324 339 342 335 333 334 331 329 327
266 270 259 275 270 268 267 263 269 275 285 284 272 226 212 282 291 283 222 253 304 299 319 325 311 317 336 338 338 337 333 331 329 340 336 333 333 333 334 334 333 331 330
278 273 275 282 276 281 283 282 287 290 299 305 305 311 241 266 235 176 233 329 326 329 315 325 336 340 337 339 344 343 341 339 340 341 339 338 335 335 338 336 332 331 332
275 273 278 271 274 284 295 300 297 305 295 302 253 308 250 229 233 313 328 334 334 343 354 348 341 339 343 342 342 340 340 344 348 348 345 341 337 335 330 330 330 326 324
266 267 258 251 258 276 283 294 309 306 295 290 159 141 160 176 337 338 332 350 1 352 345 341 339 336 335 337 342 345 346 347 346 342 336 332 329 328 325 324 324 324 322
251 245 251 256 263 281 292 309 280 135 148 168 171 344 83 111 16 347 353 354 346 339 342 345 344 338 336 340 344 347 352 350 345 341 338 337 334 332 331 330 328 326 325